Sigfox identifier Datetime Temperature Humidity SNR
0038660C 2018-10-09 09:14:33 20.6 42 14.3
0038660C 2018-10-09 08:09:22 20.6 41 14.3
0038660C 2018-10-09 07:04:10 20.6 41 14.1
0038660C 2018-10-09 05:59:03 20.6 40 13.9
0038660C 2018-10-09 04:53:53 20.6 40 14.1
0038660C 2018-10-09 01:38:35 20.6 39 14.2
0038660C 2018-10-09 00:33:28 20.6 38 14
0038660C 2018-10-08 23:28:23 20.6 38 14.6
0038660C 2018-10-08 22:23:12 20.6 38 14.6
0038660C 2018-10-08 21:18:05 20.6 38 14.2
0038660C 2018-10-08 20:12:58 20.6 38 14.2
0038660C 2018-10-08 19:07:49 20.7 37 13.6
0038660C 2018-10-08 18:02:37 20.7 37 13.7
0038660C 2018-10-08 16:57:27 20.7 37 13.3
0038660C 2018-10-08 14:47:06 20.6 36 13.2
0038660C 2018-10-08 12:36:45 20.6 35 13.2
0038660C 2018-10-08 11:31:34 20.5 33 12.3
0038660C 2018-10-08 10:26:22 20.4 31 12.3
0038660C 2018-10-08 09:21:14 20.3 31 12.3
0038660C 2018-10-08 08:16:09 20.2 31 12.3
0038660C 2018-10-08 06:05:46 20.3 33 12.3
0038660C 2018-10-08 05:00:37 20.2 33 12.3
0038660C 2018-10-08 03:55:31 20.3 34 12.2
0038660C 2018-10-08 02:50:18 20.3 34 12
0038660C 2018-10-08 01:45:07 20.4 35 12.4
0038660C 2018-10-08 00:39:57 20.4 35 12.4
0038660C 2018-10-07 23:34:45 20.4 36 13.1
0038660C 2018-10-07 22:29:34 20.4 36 12.8
0038660C 2018-10-07 21:24:22 20.4 37 13
0038660C 2018-10-07 20:19:12 20.4 37 12.9
0038660C 2018-10-07 19:14:01 20.5 38 12.7
0038660C 2018-10-07 18:08:50 20.4 38 13.2
0038660C 2018-10-07 17:03:42 20.4 38 12.8
0038660C 2018-10-07 15:58:29 20.4 38 12.8
0038660C 2018-10-07 14:53:20 20.4 38 13
0038660C 2018-10-07 13:48:07 20.4 38 13.2
0038660C 2018-10-07 12:42:53 20.4 38 13.9
0038660C 2018-10-07 11:37:40 20.4 38 13.9
0038660C 2018-10-07 10:32:27 20.5 38 13.8
0038660C 2018-10-07 09:27:14 20.5 38 13.8
0038660C 2018-10-07 08:22:01 20.5 38 14.1
0038660C 2018-10-07 07:16:49 20.5 38 14.1
0038660C 2018-10-07 06:11:37 20.6 39 14.4
0038660C 2018-10-07 05:06:24 20.6 39 14.4
0038660C 2018-10-07 04:01:12 20.6 39 14.6
0038660C 2018-10-07 02:55:59 20.6 39 14.7
0038660C 2018-10-07 01:50:43 20.6 39 14.7
0038660C 2018-10-07 00:45:31 20.6 40 14.9
0038660C 2018-10-06 23:40:11 20.6 40 15.4
0038660C 2018-10-06 22:34:56 20.6 40 15.2
0038660C 2018-10-06 21:29:42 20.6 40 15.3
0038660C 2018-10-06 20:24:32 20.6 39 15.1
0038660C 2018-10-06 19:19:13 20.7 39 15.1
0038660C 2018-10-06 18:14:00 20.8 39 15.2
0038660C 2018-10-06 17:08:50 20.8 39 15.3
0038660C 2018-10-06 16:03:38 20.8 40 15.5
0038660C 2018-10-06 14:58:29 20.8 40 15.3
0038660C 2018-10-06 13:53:20 20.7 40 15
0038660C 2018-10-06 12:48:06 20.8 39 15.2
0038660C 2018-10-06 11:42:55 20.7 39 15.2
0038660C 2018-10-06 10:37:41 20.8 39 15.2
0038660C 2018-10-06 09:32:29 20.8 39 14.5
0038660C 2018-10-06 07:22:01 20.8 40 14.7
0038660C 2018-10-06 06:16:46 20.8 40 15
0038660C 2018-10-06 05:11:32 20.9 41 15.3
0038660C 2018-10-06 04:06:17 20.9 41 15
0038660C 2018-10-06 03:01:03 21 41 15.3
0038660C 2018-10-06 01:55:48 21 42 14.9
0038660C 2018-10-06 00:50:34 21.1 42 15.4
0038660C 2018-10-05 23:45:21 21.2 42 15.5
0038660C 2018-10-05 22:40:07 21.3 43 15.7
0038660C 2018-10-05 21:34:50 21.4 43 16.8
0038660C 2018-10-05 20:29:40 21.5 44 17
0038660C 2018-10-05 19:24:24 21.6 44 7.7
0038660C 2018-10-05 18:19:11 21.7 44 0